Location: Acheri
(46.9632°N, 8.4727°E)
Time: 10:12:39
(UTC+00:00)

Daily predictions for brighter satellites

Satellite Brightness Start Highest point End
(mag) Time Altitude Azimuth Time Altitude Azimuth Time Altitude Azimuth
Cosmos 1939 Rocket 3.7 18:15:16 10° S 18:19:10 56° W 18:23:04 10° NNW
STARLINK-1216 4.2 18:16:02 10° SSW 18:19:45 37° SE 18:23:28 10° ENE
STARLINK-1100 3.8 18:15:44 10° WNW 18:19:45 62° NNE 18:23:46 10° ESE
STARLINK-1198 3.1 18:17:01 10° SW 18:20:03 52° SE 18:23:06 10° ENE
STARLINK-1235 2.9 18:17:19 10° SW 18:20:26 67° SSE 18:23:34 10° ENE
Cosmos 494 Rocket 4.2 18:16:31 10° S 18:21:24 46° ESE 18:26:21 10° NNE
Cosmos 371 Rocket 3.6 18:16:36 10° NNW 18:21:26 75° WSW 18:26:15 10° SSE
STARLINK-1199 3.1 18:18:41 10° SW 18:21:45 54° SE 18:24:50 10° ENE
STARLINK-1191 3.0 18:19:10 10° SW 18:22:13 54° SE 18:25:18 10° ENE
CZ-4C R/B 4.1 18:17:32 10° W 18:22:17 30° NNW 18:27:49 10° NNE
Cosmos 1452 Rocket 4.4 18:17:16 10° NNW 18:22:24 54° WSW 18:27:31 10° S
Cosmos 1733 3.7 18:19:01 10° SSE 18:22:29 36° E 18:25:59 10° NNE
STARLINK-1210 3.0 18:19:35 10° SW 18:22:39 55° SE 18:25:44 10° ENE
USA 81 4.1 18:17:27 10° N 18:22:40 58° E 18:27:51 10° SSE
STARLINK-1221 3.0 18:20:03 10° SW 18:23:07 55° SE 18:26:13 10° ENE
STARLINK-1219 3.0 18:20:29 10° SW 18:23:34 56° SE 18:26:40 10° ENE
STARLINK-67 2.5 18:21:23 10° WSW 18:23:57 77° NNW 18:26:33 10° ENE
STARLINK-1222 3.0 18:20:56 10° SW 18:24:00 56° SE 18:27:05 10° ENE
STARLINK-1083 3.7 18:20:20 10° WNW 18:24:21 65° NNE 18:28:22 10° ESE
STARLINK-1237 4.1 18:20:36 10° SSW 18:24:22 40° SE 18:28:09 10° ENE
STARLINK-1211 3.0 18:21:23 10° SW 18:24:28 57° SE 18:27:33 10° ENE
STARLINK-1214 3.0 18:21:50 10° SW 18:24:55 57° SE 18:28:01 10° ENE
FREGAT/IRIS 3.4 18:22:42 10° SE 18:25:03 27° ENE 18:27:26 10° N
STARLINK-1245 3.0 18:22:19 10° SW 18:25:23 58° SE 18:28:28 10° ENE
Cosmos 1709 Rocket 4.4 18:19:33 10° N 18:25:26 41° ENE 18:31:11 10° SE
STARLINK-1238 3.0 18:22:45 10° SW 18:25:50 58° SE 18:28:55 10° ENE
STARLINK-1205 2.9 18:23:40 10° SW 18:26:45 59° SE 18:29:50 10° ENE
Cosmos 1331 Rocket 4.1 18:21:39 10° NNW 18:26:48 61° ENE 18:31:53 10° SE
STARLINK-1204 2.9 18:24:06 10° SW 18:27:10 60° SE 18:30:15 10° ENE
Cosmos 1674 2.6 18:24:23 10° N 18:28:10 90° E 18:31:54 10° S
Cosmos 2219 Rocket 3.7 18:23:07 10° SW 18:28:28 42° NW 18:33:49 10° NNE
STARLINK-1202 4.0 18:25:09 10° SSW 18:28:58 43° SE 18:32:48 10° ENE
STARLINK-1125 3.7 18:24:57 10° WNW 18:28:59 68° NNE 18:33:00 10° ESE
Orbus 7S? 3.6 18:26:31 10° WNW 18:29:32 40° SW 18:31:49 10° SSE
SL-14 R/B 4.0 18:26:10 10° N 18:29:55 35° ENE 18:33:38 10° SE
KORONAS-FOTON 3.8 18:27:26 10° N 18:31:18 89° ENE 18:35:05 10° S
STARLINK-1109 3.6 18:29:14 10° WNW 18:33:17 72° NNE 18:37:10 11° ESE
STARLINK-1246 3.9 18:30:02 10° SW 18:33:56 47° SE 18:37:51 10° ENE
Cosmos 1943 Rocket 3.3 18:32:20 10° N 18:37:00 27° NE 18:41:19 11° ESE
MONITOR-E 4.4 18:34:41 10° SE 18:37:09 36° ENE 18:39:38 10° N
Cosmos 1980 3.9 18:32:11 10° SSW 18:37:53 80° WNW 18:43:37 10° NNE
STARLINK-1091 3.6 18:33:54 10° WNW 18:37:57 76° NNE 18:41:39 12° ESE
Cosmos 1766 3.2 18:34:09 10° S 18:38:09 82° E 18:42:09 10° N
S3M 4.1 18:33:39 10° S 18:40:01 82° E 18:46:27 10° N
Ariane Rocket 3.0 18:36:40 10° SSE 18:41:45 79° ENE 18:46:50 10° NNW
YAOGAN 1 4.5 18:38:09 10° SSW 18:42:05 33° W 18:46:02 10° NNW
STARLINK-1224 3.7 18:38:56 10° SW 18:42:52 54° SE 18:46:48 10° ENE
BREEZE-M DEB (TANK) 4.2 18:30:17 10° WNW 18:43:36 52° SW 18:47:05 10° SE
Cosmos 1386 Rocket 4.4 18:37:33 10° N 18:43:39 88° E 18:49:39 10° S
SL-08 ROCKET BODY 4.5 18:37:41 10° N 18:43:52 87° E 18:49:55 10° S
Cosmos 1455 Rocket 3.0 18:40:49 10° S 18:45:06 66° E 18:49:27 10° NNE
STARLINK-1225 3.6 18:43:35 10° SW 18:47:33 58° SE 18:51:32 10° ENE
Cosmos 1110 Rocket 4.1 18:42:24 10° NNW 18:47:41 82° WSW 18:52:53 10° SSE
STARLINK-1203 3.5 18:45:35 10° SW 18:49:29 64° SE 18:53:23 10° ENE
STARLINK-1144 4.5 18:45:52 10° WNW 18:49:49 42° NNE 18:53:11 14° E
STARLINK-1072 3.5 18:47:06 10° WNW 18:51:07 90° E 18:54:14 16° ESE
Cosmos 1892 Rocket 3.9 18:46:51 10° NNW 18:51:18 70° W 18:55:45 10° S
SL-16 R/B 2.4 18:45:56 10° S 18:51:22 49° ESE 18:56:49 10° NE
Cosmos 2333 Rocket 4.3 18:47:10 10° WSW 18:52:05 29° NW 18:57:01 10° N
STARLINK-1230 3.5 18:48:11 10° SW 18:52:10 63° SE 18:56:10 10° ENE
Cosmos 1626 Rocket 3.9 18:48:41 10° N 18:52:55 43° ENE 18:57:04 10° SSE
USA 186 1.8 18:50:45 10° SSE 18:54:12 77° ENE 18:57:35 10° N
STARLINK-1103 4.4 18:50:51 10° WNW 18:54:49 43° NNE 18:57:58 15° E
Cosmos 1953 3.7 18:53:54 16° ESE 18:55:12 19° E 18:58:02 10° NE
ARGOS Delta rocket 4.1 18:50:09 10° S 18:55:14 83° WSW 19:00:38 10° NNW
STARLINK-1234 3.2 18:52:31 10° WSW 18:55:30 62° NNW 18:58:25 10° ENE
STARLINK-1096 3.5 18:51:33 10° WNW 18:55:35 85° SSW 18:58:31 18° ESE
Cosmos 1626 2.1 18:52:11 10° N 18:55:52 64° E 18:59:32 10° SSE
STARLINK-1243 3.5 18:52:51 10° SW 18:56:52 68° SE 19:00:53 10° ENE
Okean 1-7 Rocket 3.9 18:54:51 10° NNW 18:59:14 67° W 19:03:34 10° S
STARLINK-1101 4.3 18:55:51 10° WNW 18:59:51 45° NNE 19:02:46 17° E
STARLINK-1079 3.5 18:56:02 10° WNW 19:00:03 80° SSW 19:02:49 19° SE
Aureole 3 4.5 18:57:25 13° SE 19:00:23 29° E 19:04:36 10° NNE
Cosmos 1602 Rocket 4.0 18:56:13 10° N 19:00:28 41° ENE 19:03:54 14° SE
STARLINK-1236 3.5 18:57:29 10° SW 19:01:31 72° SSE 19:05:22 11° ENE
ATLAS 2AS CENTAUR R/B 4.2 18:57:49 10° NW 19:04:27 29° NNE 19:10:15 12° ENE
STARLINK-1116 3.6 19:00:31 10° WNW 19:04:31 75° SSW 19:07:08 21° SE
STARLINK-1102 4.3 19:00:50 10° WNW 19:04:50 46° NNE 19:07:32 19° E
H-2A R/B 2.2 19:00:45 10° S 19:06:04 79° WSW 19:11:18 10° NNW
STARLINK-1111 4.2 19:05:48 10° WNW 19:09:50 48° NNE 19:12:19 21° E
Aureole 2 Rocket 3.9 19:07:07 10° N 19:09:52 21° ENE 19:10:31 20° ENE
Cosmos 883 Rocket 4.5 19:04:02 10° S 19:10:13 85° E 19:16:32 10° N
STARLINK-1269 3.5 19:06:53 10° SW 19:10:55 83° SSE 19:14:25 14° ENE
Cosmos 1544 Rocket 3.6 19:08:08 10° S 19:12:32 86° W 19:17:00 10° N
ERBS 4.3 19:10:04 10° W 19:13:00 27° NNW 19:15:56 10° NE
STARLINK-1094 3.7 19:09:30 10° WNW 19:13:29 66° SSW 19:15:46 24° SE
STARLINK-1073 4.1 19:10:47 10° WNW 19:14:50 50° NNE 19:17:06 23° E
USA 234 3.2 19:08:32 10° ENE 19:15:03 64° SE 19:21:32 10° SW
Cosmos 2297 3.8 19:09:48 10° NNW 19:15:30 81° WSW 19:20:56 11° SSE
STARLINK-1200 3.5 19:11:34 10° WSW 19:15:37 88° SSE 19:18:56 15° ENE
CZ-2C R/B 3.8 19:11:05 10° NNE 19:15:48 58° E 19:20:26 10° S
STARLINK-1117 3.8 19:14:01 10° WNW 19:18:00 61° SW 19:20:07 25° SE
STARLINK-1121 4.1 19:15:47 10° WNW 19:19:50 52° NNE 19:21:53 26° E
STARLINK-1192 3.5 19:16:12 10° WSW 19:20:15 87° NW 19:23:24 16° ENE
Cosmos 2237 Rocket 3.5 19:16:26 10° SW 19:21:45 42° NW 19:27:07 10° NNE
STARLINK-1078 3.9 19:18:31 10° WNW 19:22:28 57° SW 19:24:26 27° SSE
STARLINK-1106 4.0 19:20:44 10° WNW 19:24:49 55° NNE 19:26:39 29° E
STARLINK-1244 3.6 19:21:00 10° WSW 19:25:03 82° NNW 19:28:01 18° ENE
Cosmos 1302 Rocket 4.1 19:19:57 10° NNW 19:25:15 82° WSW 19:29:43 15° SSE
STARLINK-1201 3.7 19:22:16 10° W 19:25:29 52° NNW 19:27:31 20° NE
STARLINK-1108 4.0 19:23:04 10° WNW 19:27:00 53° SW 19:28:47 28° SSE
CZ-2C R/B 2.8 19:22:50 10° NNE 19:27:49 45° E 19:32:38 11° S
Cosmos 1992 Rocket 4.4 19:23:21 10° NNW 19:28:23 45° ENE 19:30:33 29° ESE
Cosmos 2184 Rocket 4.3 19:22:32 10° N 19:28:40 49° ENE 19:32:14 24° SE
Cosmos 1269 Rocket 4.4 19:23:34 10° SSW 19:28:50 69° WNW 19:34:09 10° NNE
Cosmos 1758 Rocket 4.1 19:25:03 10° N 19:29:08 38° ENE 19:30:09 33° ESE
STARLINK-1138 3.6 19:25:42 10° WSW 19:29:45 78° NNW 19:32:31 20° ENE
STARLINK-1112 3.9 19:25:44 10° WNW 19:29:50 57° NNE 19:31:27 33° E
STARLINK-1209 4.1 19:28:08 10° W 19:30:52 36° NNW 19:32:14 22° NE
STARLINK-1071 4.1 19:27:35 10° WNW 19:31:29 49° SW 19:33:08 30° SSE
STARLINK-1228 4.1 19:29:09 10° W 19:31:51 35° NNW 19:33:08 23° NNE
STARLINK-1124 4.2 19:28:30 10° WNW 19:32:31 49° SW 19:34:14 29° SSE
ARGOS 3.8 19:28:57 10° S 19:34:15 55° W 19:39:34 10° NNW
STARLINK-1143 3.7 19:30:29 10° WSW 19:34:32 74° NNW 19:37:08 21° NE
STARLINK-1128 3.8 19:30:44 10° WNW 19:34:50 61° NNE 19:36:15 37° E
Cosmos 2251 Rocket 3.8 19:30:40 10° S 19:35:40 43° ESE 19:40:44 10° NE
SL-8 R/B 3.7 19:31:01 10° W 19:35:48 74° N 19:38:02 31° E
STARLINK-1110 4.2 19:32:08 10° WNW 19:36:00 46° SW 19:37:29 30° SSE
SL-24 R/B 4.0 19:33:00 10° NNE 19:37:44 85° ESE 19:41:49 10° SSW
STARLINK-1113 3.8 19:35:42 10° WNW 19:39:50 64° NNE 19:41:02 42° E
Cosmos 1470 3.1 19:37:35 10° SSW 19:41:25 63° W 19:45:18 10° N
Cosmos 1606 Rocket 4.4 19:43:15 32° ENE 19:43:15 32° ENE 19:46:37 10° NNE
STARLINK-1119 3.7 19:40:40 10° WNW 19:44:48 67° NNE 19:45:48 48° E
STARLINK-1241 3.8 19:41:00 10° WSW 19:45:00 65° NNW 19:47:06 26° NE
STARLINK-1122 4.5 19:41:21 10° WNW 19:45:07 39° SW 19:46:17 31° S
STARLINK-1233 4.1 19:42:20 10° W 19:45:18 39° NNW 19:46:21 29° NNE
SL-08 RB Rocket 4.4 19:41:02 10° S 19:45:25 51° W 19:49:54 10° NNW
Cosmos 2315 Rocket 4.4 19:39:23 10° SSW 19:45:40 68° WNW 19:52:02 10° N
STARLINK-1212 4.1 19:42:47 10° W 19:45:46 39° NNW 19:46:46 29° NNE
STARLINK-1105 4.1 19:43:14 10° W 19:46:13 39° NNW 19:47:13 29° NNE
SJ-6B 4.3 19:42:49 10° SSW 19:46:35 37° W 19:50:27 10° NNW
STARLINK-1206 4.1 19:43:44 10° W 19:46:41 38° NNW 19:47:37 30° NNE
MetOp-A 4.3 19:42:29 15° S 19:46:58 74° WSW 19:52:21 10° NNW
STARLINK-1247 4.1 19:44:11 10° W 19:47:08 38° NNW 19:48:03 30° NNE
Resurs 1-3 3.7 19:44:44 25° S 19:47:16 77° WSW 19:51:41 10° NNW
STARLINK-1227 4.2 19:44:36 10° W 19:47:33 38° NNW 19:48:30 30° NNE
ISS -3.4 19:44:39 10° WNW 19:47:57 53° NNE 19:48:11 52° NE
STARLINK-1218 4.2 19:45:05 10° W 19:48:02 38° NNW 19:48:55 30° NNE
STARLINK-1226 4.2 19:45:33 10° W 19:48:30 38° NNW 19:49:23 30° NNE
STARLINK-1254 4.2 19:45:57 10° W 19:48:54 38° NNW 19:49:48 30° NNE
ERS-1 Rocket 4.2 19:48:48 24° ENE 19:49:05 24° ENE 19:53:07 10° N
Cosmos 1758 3.9 19:45:19 10° SSW 19:49:20 58° WNW 19:53:24 10° N
STARLINK-1215 4.2 19:46:28 10° W 19:49:24 37° NNW 19:50:14 30° NNE
Cosmos 2154 Rocket 4.4 19:43:27 10° N 19:49:33 46° ENE 19:51:33 35° ESE
STARLINK-1239 3.9 19:45:36 10° WSW 19:49:34 61° NNW 19:51:30 28° NE
STARLINK-1114 3.6 19:45:40 10° WNW 19:49:49 71° NNE 19:50:36 54° E
STARLINK-1231 4.2 19:46:54 10° W 19:49:50 37° NNW 19:50:39 31° NNE
STARLINK-1232 4.2 19:47:48 10° W 19:50:45 37° NNW 19:51:31 31° NNE
USA 245 4.4 19:50:07 38° E 19:51:08 43° ENE 19:56:32 10° N
STARLINK-1217 4.2 19:48:16 10° W 19:51:12 37° NNW 19:51:58 31° NNE
STARLINK-1208 4.2 19:48:41 10° W 19:51:39 37° NNW 19:52:25 31° NNE
STARLINK-1229 4.2 19:49:10 10° W 19:52:06 36° NNW 19:52:49 31° NNE
STARLINK-1271 4.2 19:49:38 10° W 19:52:34 36° NNW 19:53:17 31° NNE
BREEZE-M DEB (TANK) 3.3 19:46:34 10° WNW 19:52:41 71° NNE 19:53:10 59° ENE
IRIDIUM 104 4.3 19:47:27 10° N 19:52:42 84° W 19:56:26 20° S
STARLINK-1270 4.2 19:50:06 10° W 19:53:02 36° NNW 19:53:42 32° NNE
BREEZE M DEB (TANK) 4.1 19:44:01 10° SW 19:53:24 39° SSE 19:53:49 38° SE
STARLINK-1154 4.2 19:50:32 10° W 19:53:27 36° NNW 19:54:07 32° NNE
STARLINK-1240 4.0 19:50:14 10° WSW 19:54:12 58° NNW 19:55:56 31° NE
STARLINK-1197 4.2 19:51:26 10° W 19:54:22 36° NNW 19:54:59 32° NNE
Resurs 01 Rocket 1.5 19:53:04 40° SSE 19:54:37 89° ESE 19:59:04 10° NNW
STARLINK-1130 (DARKSAT) 3.5 19:50:38 10° WNW 19:54:47 76° NNE 19:55:22 62° E
STARLINK-1189 4.2 19:51:54 10° W 19:54:49 35° NNW 19:55:26 32° N
SPOT 5 4.3 19:56:05 19° NE 19:56:05 19° NE 19:58:40 10° NNE
STARLINK-1187 4.3 19:52:48 10° W 19:55:43 34° NNW 19:56:20 30° NNE
STARLINK-1188 4.2 19:52:48 10° W 19:55:44 35° NNW 19:56:17 32° N
Cosmos 2369 Rocket 2.2 19:50:13 10° NNW 19:55:57 71° ENE 19:57:50 43° SE
STARLINK-1198 4.2 19:53:03 10° W 19:55:58 35° NNW 19:56:31 32° N
STARLINK-1235 4.4 19:53:33 10° W 19:56:26 32° NNW 19:57:04 29° NNE
STARLINK-1199 4.3 19:54:45 10° W 19:57:41 35° NNW 19:58:13 32° N
STARLINK-1191 4.3 19:55:14 10° W 19:58:09 35° NNW 19:58:39 32° N
STARLINK-1210 4.3 19:55:41 10° W 19:58:36 35° NNW 19:59:04 33° N
STARLINK-1216 4.1 19:54:53 10° W 19:58:51 56° NNW 20:00:23 33° NE
STARLINK-1221 4.3 19:56:08 10° W 19:59:04 35° NNW 19:59:33 32° N
STARLINK-1219 4.3 19:56:35 10° W 19:59:31 34° NNW 19:59:58 32° N
Cosmos 2263 4.3 19:54:05 10° NNW 19:59:37 57° ENE 20:01:00 45° ESE
STARLINK-1084 3.5 19:55:36 10° WNW 19:59:46 80° NNE 20:00:09 71° E
STARLINK-1222 4.3 19:57:02 10° W 19:59:57 34° NNW 20:00:22 33° N
STARLINK-1211 4.3 19:57:29 10° W 20:00:24 34° NNW 20:00:48 33° N
STARLINK-1214 4.3 19:57:57 10° W 20:00:52 34° NNW 20:01:15 33° N
STARLINK-1245 4.3 19:58:27 10° W 20:01:20 34° NNW 20:01:40 33° N
STARLINK-1238 4.3 19:58:53 10° W 20:01:47 34° NNW 20:02:07 33° N
STARLINK-1205 4.3 19:59:50 10° W 20:02:42 33° NNW 20:02:59 33° N
STARLINK-1204 4.3 20:00:16 10° W 20:03:08 33° NNW 20:03:23 33° N
STARLINK-1237 4.2 19:59:34 10° W 20:03:31 53° NNW 20:04:52 35° NE
STARLINK-1098 3.4 20:00:34 10° WNW 20:04:44 85° NNE 20:04:55 80° E
SPOT 3 Rocket 4.5 20:00:43 12° S 20:05:15 46° W 20:10:17 10° NNW
Cosmos 1726 2.4 20:06:29 59° NNE 20:06:29 59° NNE 20:09:36 10° N
Landsat 7 4.2 20:06:34 45° ENE 20:06:34 45° ENE 20:11:07 10° N
STARLINK-1202 4.3 20:04:13 10° W 20:08:09 51° NNW 20:09:18 37° NNE
Meteor 1-21 Rocket 4.4 20:02:49 10° NNW 20:08:22 67° W 20:11:31 26° S
Nadezhda 1 Rocket 4.0 20:06:17 38° SSE 20:08:40 60° E 20:14:57 10° NNE
STARLINK-1123 3.5 20:05:34 10° WNW 20:09:43 89° WNW 20:09:43 89° WNW
Cosmos 2228 3.5 20:11:02 45° NE 20:11:02 45° NE 20:14:17 10° NNE
MOS 1 Rocket 3.8 20:07:39 10° N 20:12:50 73° WNW 20:18:12 10° SSW
STARLINK-1246 4.4 20:09:21 10° W 20:13:18 49° NNW 20:14:18 39° NNE
STARLINK-1097 3.6 20:10:32 10° WNW 20:14:29 79° W 20:14:29 79° W
Cosmos 292 Rocket 4.0 20:13:24 10° NNW 20:18:09 64° WSW 20:19:07 51° SSW
Cosmos 1943 3.3 20:19:28 52° E 20:19:28 52° E 20:24:20 10° NE
STARLINK-1099 3.8 20:15:32 10° WNW 20:19:17 70° W 20:19:17 70° W
Cosmos 1943 Rocket 2.5 20:15:41 10° NNW 20:21:08 59° WSW 20:22:51 41° S
STARLINK-1224 4.4 20:18:17 10° W 20:22:10 45° NNW 20:22:45 42° N
Cosmos 2074 Rocket 4.2 20:17:14 10° NNW 20:23:27 68° W 20:26:45 29° S
NOSS 3-4 (A) 4.3 20:17:13 10° NW 20:23:50 48° NE 20:25:57 38° E
NOSS 3-4 (C) 4.3 20:17:19 10° NW 20:23:55 48° NE 20:26:03 38° E
STARLINK-1104 4.0 20:20:31 10° WNW 20:24:04 61° W 20:24:04 61° W
STARLINK-1225 4.5 20:23:02 10° W 20:26:55 44° NNW 20:27:17 42° N
Cosmos 1328 4.4 20:23:35 10° N 20:26:45 54° N 20:26:45 54° N
STARLINK-1144 4.2 20:25:29 10° WNW 20:28:50 53° W 20:28:50 53° W
Cosmos 1953 3.8 20:29:29 23° SW 20:31:20 36° WNW 20:35:02 10° N
Meteor 2-10 4.4 20:28:33 22° SSW 20:31:59 65° WNW 20:37:30 10° N
SPOT 1/Viking Rocket 3.5 20:32:06 69° ENE 20:32:06 69° ENE 20:37:14 10° N
NOSS 3-3 (A) 3.7 20:27:19 10° SSW 20:33:09 78° SE 20:39:47 10° NE
NOSS 3-3 (C) 3.7 20:27:26 10° SSW 20:33:15 77° SE 20:39:53 10° NE
Spot 2 Rocket 3.5 20:33:06 69° SSW 20:33:39 77° WSW 20:38:48 10° NNW
STARLINK-1103 4.4 20:30:28 10° WNW 20:33:37 47° W 20:33:37 47° W
Cosmos 2084 Rocket 4.2 20:31:17 10° NW 20:35:19 49° WSW 20:35:19 49° WSW
SL-16 R/B 4.0 20:30:41 10° WSW 20:35:42 32° NW 20:40:44 10° NNE
Cosmos 1610 Rocket 4.5 20:31:17 10° N 20:37:33 80° W 20:39:04 54° S
IGS 5A 4.3 20:42:15 47° NNW 20:42:15 47° NNW 20:45:15 10° NNW
Terra 2.9 20:49:36 35° NNE 20:49:36 35° NNE 20:52:43 10° N
Cosmos 2341 Rocket 3.9 20:47:21 10° N 20:53:45 77° E 20:53:51 76° E
ATLAS 2AS CENTAUR R/B 2.8 20:49:08 10° NW 20:56:50 71° NE 20:57:41 65° E
Cosmos 1603 4.0 20:53:25 23° SW 20:56:59 64° WNW 21:02:35 10° NNE
USA 234 3.8 20:51:40 10° NE 20:58:00 55° NNW 21:04:20 10° W
APEX 4.5 20:59:23 10° NNW 21:06:05 71° NE 21:06:05 71° NE
CZ-2C R/B 4.5 21:03:36 10° N 21:07:54 27° WNW 21:12:11 10° WSW
Aureole 1 Rocket 4.2 21:07:14 73° S 21:08:01 82° ESE 21:14:43 10° NNE
COSMOS 2455 3.5 21:05:51 10° NNW 21:11:09 47° NNE 21:11:09 47° NNE
Cosmos 2218 Rocket 4.2 21:16:15 10° N 21:21:26 62° NNE 21:21:26 62° NNE
Cosmos 1656 Rocket 4.4 21:17:52 10° NW 21:22:37 49° W 21:22:37 49° W
ERS-1 Rocket 4.1 21:28:47 41° WNW 21:28:47 41° WNW 21:32:30 10° NNW
Resurs 01 Rocket 4.5 21:31:31 10° W 21:31:46 10° W 21:32:01 10° W
Cosmos 2181 Rocket 4.3 21:33:09 63° N 21:33:09 63° N 21:38:18 10° N
Cosmos 2369 Rocket 4.1 21:35:23 10° NW 21:39:21 20° W 21:39:39 20° WSW
CZ-4C R/B 4.4 21:58:21 10° NNW 22:03:55 27° NNE 22:06:33 22° NE
Mayak 1.7 22:06:30 10° N 22:06:55 13° N 22:06:55 13° N
Terra 4.4 22:28:30 16° NW 22:28:30 16° NW 22:29:55 10° NW
Cosmos 1697 Rocket 4.4 22:22:54 10° NNW 22:26:03 28° N 22:26:03 28° N
USA 234 4.5 22:34:25 10° ENE 22:40:18 37° N 22:46:11 10° WNW
ATLAS 2AS CENTAUR R/B 4.3 22:40:55 10° NW 22:45:08 26° W 22:45:08 26° W
Cosmos 1980 Rocket 4.1 22:48:01 10° NNW 22:50:54 25° N 22:50:54 25° N
SL-16 R/B 4.5 23:21:37 20° ENE 23:21:53 20° NE 23:26:09 10° N
ATLAS 5 CENTAUR R/B 4.5 23:39:11 16° NNE 23:39:11 16° NNE 23:40:27 10° NNE
